DW8903 Ypaja FI current weather conditions

sailwx.info

Wind from 162

Air temperature -2.2° C
Dewpoint -2.8° C

Last reported at 2019-Jan-23 10:00 UTC.
Time now 2019-Jan-23 10:23 UTC

Location: N 60°48' E 023°14'.
View on Google Maps.

See reports from other nearby stations

  
Tides and Currents Weather Stations Pressure Air Temp Water Temp Dewpoint Dewpoint Depression Visibility Wind Speed Wind Dir Waves Ship Positions
date/time (UTC)wind fromknots sea level pressurealtimeterstation pressurevisibilityair tempwater tempwave heightnotes
2019-Jan-23 10:00 162 -2.2
2019-Jan-23 09:45 162 -2.2
2019-Jan-23 09:31 162 -2.2
2019-Jan-23 09:16 162 -2.2
2019-Jan-23 09:01 162 -2.8
2019-Jan-23 08:45 162 -2.8
2019-Jan-23 08:30 162 -2.8
2019-Jan-23 08:15 162 -2.8
2019-Jan-23 08:01 180 -2.8
2019-Jan-23 07:46 167 -2.8
2019-Jan-23 07:31 164 -2.8
2019-Jan-23 07:16 173 -3.3
2019-Jan-23 07:00 175 -3.3
2019-Jan-23 06:46 257 -3.3
2019-Jan-23 06:30 167 -3.3
2019-Jan-23 06:16 167 -3.9
2019-Jan-23 06:00 167 -3.9
2019-Jan-23 05:45 167 -3.9
2019-Jan-23 05:30 174 -3.9
2019-Jan-23 05:15 169 -3.9
2019-Jan-23 05:01 181 -3.9
2019-Jan-23 04:45 177 -3.9
2019-Jan-23 04:31 182 -4.4
2019-Jan-23 04:16 192 -4.4
2019-Jan-23 04:00 166 -4.4
2019-Jan-23 03:45 173 -4.4
2019-Jan-23 03:30 178 -4.4
2019-Jan-23 03:15 192 -4.4
2019-Jan-23 03:00 161 -4.4
2019-Jan-23 02:45 171 -4.4
2019-Jan-23 02:30 171 -5.0
2019-Jan-23 02:15 172 -5.0
2019-Jan-23 02:00 156 -5.0
2019-Jan-23 01:45 167 -5.0
2019-Jan-23 01:30 170 -5.0
2019-Jan-23 01:15 156 -5.6
2019-Jan-23 01:00 168 -5.6
2019-Jan-23 00:45 140 -5.6
2019-Jan-23 00:31 162 -5.6
2019-Jan-23 00:02 169 -6.1
2019-Jan-22 23:46 147 -6.1
2019-Jan-22 23:31 166 -6.1
2019-Jan-22 23:16 156 -6.1
2019-Jan-22 23:01 144 -6.7
2019-Jan-22 22:46 166 -6.7
2019-Jan-22 22:31 163 -7.2
2019-Jan-22 22:17 169 -7.8
2019-Jan-22 22:02 148 -7.8
2019-Jan-22 21:46 182 -8.3
2019-Jan-22 21:31 173 -8.9
2019-Jan-22 21:16 171 -8.9
2019-Jan-22 21:01 152 -8.9
2019-Jan-22 20:45 161 -9.4
2019-Jan-22 20:30 160 -9.4
2019-Jan-22 20:15 169 -9.4
2019-Jan-22 20:00 149 -9.4
2019-Jan-22 19:47 161 -9.4
2019-Jan-22 19:31 170 -9.4
2019-Jan-22 19:16 156 -9.4
2019-Jan-22 19:01 156 -10.0
2019-Jan-22 18:46 163 -10.0
2019-Jan-22 18:31 172 -10.0
2019-Jan-22 18:16 165 -10.0
2019-Jan-22 18:01 157 -10.6
2019-Jan-22 17:45 153 -10.6
2019-Jan-22 17:30 165 -11.1
2019-Jan-22 17:15 162 -11.1
2019-Jan-22 17:00 165 -12.2
2019-Jan-22 16:45 160 -12.2
2019-Jan-22 16:30 175 -12.2
2019-Jan-22 16:03 171 -12.8
2019-Jan-22 15:46 167 -12.8
2019-Jan-22 15:31 167 -12.8
2019-Jan-22 15:16 166 -13.3
2019-Jan-22 15:01 167 -13.3
2019-Jan-22 14:46 166 -13.3
2019-Jan-22 14:30 166 -13.3
2019-Jan-22 14:16 166 -13.9
2019-Jan-22 14:01 166 -13.9
2019-Jan-22 13:45 166 -13.9
2019-Jan-22 13:30 170 -14.4
2019-Jan-22 13:15 171 -14.4
2019-Jan-22 13:00 209 -14.4
2019-Jan-22 12:45 313 -14.4
2019-Jan-22 12:31 313 -14.4
2019-Jan-22 12:18 313 -15.0
2019-Jan-22 12:01 313 -15.0
2019-Jan-22 11:47 313 -15.6
2019-Jan-22 11:31 309 -16.1
2019-Jan-22 11:16 153 -17.2
2019-Jan-22 11:01 178 -17.8
2019-Jan-22 10:46 178 -17.8
2019-Jan-22 10:30 302 -18.3
2019-Jan-22 10:15 302 -19.4
2019-Jan-22 10:00 302 -20.0
2019-Jan-22 09:45 168 -21.1
2019-Jan-22 09:30 162 -22.2
2019-Jan-22 09:15 338 -22.8
2019-Jan-22 09:01 338 -23.9
2019-Jan-22 08:46 338 -24.4
2019-Jan-22 08:32 338 -25.6
2019-Jan-22 08:15 338 -26.7
2019-Jan-22 08:00 338 -27.2
2019-Jan-22 07:47 338 -27.8
2019-Jan-22 07:31 338 -27.8
2019-Jan-22 07:16 338 -27.8
2019-Jan-22 07:01 338 -28.3
2019-Jan-22 06:46 338 -28.3
2019-Jan-22 06:31 338 -28.3
2019-Jan-22 06:15 338 -28.3
2019-Jan-22 06:00 338 -28.3
2019-Jan-22 05:45 338 -27.8
2019-Jan-22 05:30 338 -27.8
2019-Jan-22 05:16 338 -27.8
2019-Jan-22 05:00 338 -28.3
2019-Jan-22 04:45 338 -28.3
2019-Jan-22 04:30 338 -28.3
2019-Jan-22 04:17 338 -28.9
2019-Jan-22 04:01 338 -28.3
2019-Jan-22 03:47 338 -28.3
2019-Jan-22 03:32 338 -28.3
2019-Jan-22 03:16 338 -28.3
2019-Jan-22 03:00 338 -28.3
2019-Jan-22 02:46 338 -28.3
2019-Jan-22 02:31 338 -27.8
2019-Jan-22 02:16 338 -27.8
2019-Jan-22 02:00 338 -27.8
2019-Jan-22 01:45 338 -27.8
2019-Jan-22 01:30 338 -27.8
2019-Jan-22 01:15 338 -27.8
2019-Jan-22 01:00 338 -27.8
2019-Jan-22 00:46 338 -27.2
2019-Jan-22 00:32 338 -27.2
2019-Jan-22 00:16 338 -27.2
2019-Jan-22 00:01 338 -27.2
2019-Jan-21 23:46 338 -27.2
2019-Jan-21 23:31 338 -27.2
2019-Jan-21 23:16 338 -26.7
2019-Jan-21 23:01 338 -26.7
2019-Jan-21 22:45 338 -26.7
2019-Jan-21 22:30 338 -26.7
2019-Jan-21 22:15 338 -26.1
2019-Jan-21 22:00 338 -26.1
2019-Jan-21 21:45 338 -26.1
2019-Jan-21 21:30 338 -25.6
2019-Jan-21 21:15 338 -25.6
2019-Jan-21 21:01 338 -25.6
2019-Jan-21 20:46 338 -25.6
2019-Jan-21 20:31 338 -25.6
2019-Jan-21 20:16 338 -25.0
2019-Jan-21 20:01 338 -25.0
2019-Jan-21 19:46 338 -25.0
2019-Jan-21 19:31 338 -24.4
2019-Jan-21 19:16 338 -24.4
2019-Jan-21 19:01 338 -24.4
2019-Jan-21 18:45 338 -24.4
2019-Jan-21 18:30 338 -23.9
2019-Jan-21 18:15 338 -23.9
2019-Jan-21 18:00 338 -23.3
2019-Jan-21 17:45 338 -22.8
2019-Jan-21 17:33 338 -22.8
2019-Jan-21 17:16 338 -22.8
2019-Jan-21 17:01 338 -22.2
2019-Jan-21 16:46 338 -22.2
2019-Jan-21 16:31 338 -22.2
2019-Jan-21 16:16 338 -21.7
2019-Jan-21 16:01 338 -21.1
2019-Jan-21 15:45 338 -21.1
2019-Jan-21 15:31 338 -20.6
2019-Jan-21 15:15 338 -20.6
2019-Jan-21 15:00 338 -20.0
2019-Jan-21 14:45 338 -20.0
2019-Jan-21 14:30 338 -19.4
2019-Jan-21 14:15 338 -19.4
2019-Jan-21 13:46 338 -18.9
2019-Jan-21 13:32 338 -18.3
2019-Jan-21 13:16 338 -18.3
2019-Jan-21 13:01 338 -17.8
2019-Jan-21 12:46 338 -17.8
2019-Jan-21 12:31 338 -17.8
2019-Jan-21 12:16 338 -17.2
2019-Jan-21 12:00 338 -17.2
2019-Jan-21 11:46 338 -17.2
2019-Jan-21 11:30 338 -17.8
2019-Jan-21 11:16 338 -17.8
2019-Jan-21 11:00 338 -17.8
2019-Jan-21 10:45 338 -17.8
2019-Jan-21 10:30 338 -17.8
2019-Jan-21 10:18 338 -17.8
2019-Jan-21 10:01 338 -18.3